Station NWCL1 - 8761927 - New Canal Station, LA Image indicating link to RSS feed of recent meteorological observations for station NWCL1


Conditions at NWCL1 as of
(5:30 pm CDT)
2230 GMT on 05/27/2024:
     

Click on the graph icon in the table below to see a time series plot of the last five days of that observation.

5-day plot - Wind Direction Wind Direction (WDIR):SSW ( 200 deg true )
5-day plot - Wind Speed Wind Speed (WSPD): 4.1 kts
5-day plot - Wind Gust Wind Gust (GST): 7.0 kts
5-day plot - Atmospheric Pressure Atmospheric Pressure (PRES):29.91 in
5-day plot - Air Temperature Air Temperature (ATMP): 90.0 °F
5-day plot - Water Temperature Water Temperature (WTMP): 85.6 °F
5-day plot - Wind Speed at 10 Meters Wind Speed at 10 meters (WSPD10M): 3.9 kts
5-day plot - Wind Speed at 20 Meters Wind Speed at 20 meters (WSPD20M): 3.9 kts
5-day plot -  Wind Speed, Wind Gust and Atmospheric Pressure Combined plot of Wind Speed, Gust, and Air Pressure
NOS Water Level Observation Network Water Level
Previous observations
TIME
(CDT)
5-day plot - Wind Direction
WDIR
 
5-day plot - Wind Speed
WSPD
kts
5-day plot - Wind Gust
GST
kts
5-day plot - Wave Height
WVHT
ft
5-day plot - Dominant Wave Period
DPD
sec
5-day plot - Average Wave Period
APD
sec
5-day plot - Mean Wave Direction
MWD
 
5-day plot - Atmospheric Pressure
PRES
in
5-day plot - Pressure Tendency
PTDY
in
5-day plot - Air Temperature
ATMP
°F
5-day plot - Water Temperature
WTMP
°F
5-day plot - Dew Point
DEWP
°F
5-day plot - Salinity
SAL
psu
5-day plot - Visibility
VIS
nmi
5-day plot - Tide (above MLLW)
TIDE
ft
2024-05-27 05:24 pmSSW 5.1 7.0----29.91- 89.8 85.6----
2024-05-27 05:18 pmSSW 1.9 9.9----29.91- 90.3 85.6----
2024-05-27 05:12 pm SW 4.1 6.0----29.91- 90.5 85.8----
2024-05-27 05:06 pm SW 4.1 7.0----29.91- 90.1 85.8----
2024-05-27 05:00 pm--------- 90.0 85.8----
2024-05-27 04:54 pm--------- 89.6 85.8----
2024-05-27 04:48 pmWSW 5.1 8.9----29.91- 89.8 86.0----
2024-05-27 04:42 pm SW 6.0 9.9----29.91- 89.4 86.0----
2024-05-27 04:36 pm SW 6.0 8.0----29.91- 89.6 86.0----
2024-05-27 04:30 pm SW 6.0 8.9----29.91-- 86.0----
2024-05-27 04:24 pm SW 5.1 8.9----29.91-- 86.0----
2024-05-27 04:18 pmSSW 2.9 7.0----29.91- 89.6 85.8----
2024-05-27 04:12 pm SW 5.1 8.0----29.91- 89.8 85.6----
2024-05-27 04:06 pmSSW 5.1 8.0----29.91- 89.4 85.5----
2024-05-27 04:00 pm SW 5.1 7.0----29.91-0.04 89.4 85.5----
2024-05-27 03:54 pmSSW 2.9 7.0----29.91- 89.4 85.5----
2024-05-27 03:48 pmSSW 5.1 8.0----29.91- 88.5 85.5----
2024-05-27 03:42 pmWSW 2.9 8.0----29.91- 88.5 85.5----
2024-05-27 03:36 pmSSW 4.1 5.1----29.92- 88.7 85.3----
2024-05-27 03:30 pm-------29.92- 89.2 85.3----
2024-05-27 03:24 pm-------29.92- 89.1 85.3----
2024-05-27 03:18 pm SW 1.9 8.0----29.92- 88.5 85.3----
2024-05-27 03:12 pm S 5.1 7.0----29.92- 88.7 85.3----
2024-05-27 03:06 pmSSW 5.1 9.9----29.93- 88.0 85.3----
2024-05-27 03:00 pmSSW 4.1 8.9----29.93-0.03 88.3 85.3----
2024-05-27 02:54 pm SW 7.0 12.0----29.93- 88.2 85.3----
2024-05-27 02:48 pm SW 5.1 8.0------ 88.2 85.3----
2024-05-27 02:42 pm S 6.0 8.0------ 88.0 85.3----
2024-05-27 02:36 pm SW 6.0 8.0------ 88.2 85.3----
2024-05-27 02:30 pm SW 6.0 11.1----29.93- 88.3 85.3----
2024-05-27 02:24 pm S 6.0 9.9----29.93- 88.5 85.3----
2024-05-27 02:18 pmSSW 8.0 11.1----29.93- 87.8 85.3----
2024-05-27 02:12 pm SW 7.0 12.0----29.93- 87.6 85.3----
2024-05-27 02:06 pmSSW 7.0 12.0----29.93- 87.6 85.3----
2024-05-27 02:00 pmSSW 6.0 9.9----29.93-0.02 87.8 85.1----
2024-05-27 01:54 pmSSW 6.0 8.0----29.93- 87.8 85.3----
2024-05-27 01:48 pmSSW 5.1 8.9----29.94- 87.4 85.3----
2024-05-27 01:42 pmWSW 4.1 8.9----29.94- 87.4 85.3----
2024-05-27 01:36 pmSSW 4.1 8.9----29.94- 87.4 85.1----
2024-05-27 01:30 pm SW 4.1 6.0----29.94- 86.7 85.1----
2024-05-27 01:24 pm- 0.0 7.0----29.94- 87.1 85.3----
2024-05-27 01:18 pm SW 2.9 5.1----29.95- 87.6 85.3----
2024-05-27 01:12 pm W 1.0 5.1----29.95- 87.4 85.1----
2024-05-27 01:06 pm NW 2.9 6.0----29.95- 86.9 85.1----
2024-05-27 01:00 pmSSW 2.9 6.0----29.95+0.00 86.7 85.1----
2024-05-27 12:54 pmWNW 1.0 5.1----29.95- 86.7 85.1----
2024-05-27 12:48 pmWNW 1.0 2.9----29.95-- 85.3----
2024-05-27 12:42 pmWNW 1.9 5.1----29.95-- 85.1----
2024-05-27 12:36 pmWNW 2.9 5.1----29.96-- 85.1----
2024-05-27 12:30 pm W 1.9 6.0----29.96- 87.8 85.3----
2024-05-27 12:24 pm W 2.9 6.0----29.96- 87.6 85.3----
2024-05-27 12:18 pmSSW 1.9 6.0----29.96- 87.3 85.1----
2024-05-27 12:12 pm SW 4.1 6.0----29.96- 87.1 85.1----
2024-05-27 12:06 pmWSW 5.1 9.9----29.96- 87.6 85.1----
2024-05-27 12:00 pm SW 5.1 8.9----29.96+0.01 87.3 85.1----
2024-05-27 11:54 am SW 5.1 8.9----29.96- 87.1 85.1----
2024-05-27 11:48 amSSW 6.0 11.1----29.96- 86.9 84.9----
2024-05-27 11:42 amSSW 8.0 9.9----29.95- 86.5 84.9----
2024-05-27 11:36 amSSW 6.0 9.9----29.95- 86.7 85.1----
2024-05-27 11:30 amSSW 5.1 11.1----29.95- 86.9 85.1----
2024-05-27 11:24 amSSW 7.0 8.9----29.96- 86.4 84.9----
2024-05-27 11:18 amSSW 6.0 8.0----29.96- 86.4 85.1----
2024-05-27 11:12 am SW 5.1 6.0----29.96- 86.4 85.1----
2024-05-27 11:06 amWSW 4.1 8.0----29.96- 86.4 85.1----
2024-05-27 11:00 am SW 4.1 7.0----29.96+0.03 86.0 85.1----
2024-05-27 10:54 am W 5.1 7.0----29.96- 86.4 85.1----
2024-05-27 10:48 amWSW 6.0 9.9----29.96- 85.8 84.9----
2024-05-27 10:42 am SW 2.9 8.9----29.95- 86.0 84.9----
2024-05-27 10:36 amWSW 5.1 7.0----29.95- 86.0 84.9----
2024-05-27 10:30 amSSW 4.1 6.0----29.95- 85.3 84.7----
2024-05-27 10:24 amSSW 5.1 7.0----29.95- 85.1 84.7----
2024-05-27 10:18 amSSW 6.0 8.9----29.95- 84.7 84.7----
2024-05-27 10:12 am SW 6.0 8.9----29.95- 84.6 84.7----
2024-05-27 10:06 am SW 4.1 7.0----29.95- 84.4 84.6----
2024-05-27 10:00 am SW 5.1 7.0----29.95+0.03 84.2 84.6----
2024-05-27 09:54 amWSW 4.1 6.0----29.94- 84.0 84.6----
2024-05-27 09:48 am SW 4.1 8.0----29.94-- 84.6----
2024-05-27 09:42 amSSW 6.0 8.0----29.95-- 84.6----
2024-05-27 09:36 amSSW 5.1 7.0----29.95-- 84.6----
2024-05-27 09:30 amWSW 5.1 7.0----29.94- 84.0 84.4----
2024-05-27 09:24 am SW 4.1 7.0----29.94- 84.0 84.4----
2024-05-27 09:18 amWSW 5.1 8.0----29.94- 83.7 84.2----
2024-05-27 09:12 am SW 4.1 8.0----29.94- 83.5 84.2----
2024-05-27 09:06 amWSW 4.1 8.0----29.94- 83.3 84.2----
2024-05-27 09:00 am SW 2.9 8.0----29.94+0.06 83.5 84.2----
2024-05-27 08:54 amSSW 6.0 9.9----29.93- 82.8 84.2----
2024-05-27 08:48 amSSW 6.0 9.9----29.93- 82.8 84.2----
2024-05-27 08:42 am SW 7.0 8.9----29.93- 82.6 84.2----
2024-05-27 08:36 am SW 7.0 8.9----29.93- 82.4 84.2----
2024-05-27 08:30 amSSW 5.1 8.0----29.93- 82.2 84.2----
2024-05-27 08:24 amSSW 6.0 9.9----29.93- 81.9 84.2----
2024-05-27 08:18 am SW 2.9 7.0----29.93- 82.2 84.2----
2024-05-27 08:12 amSSW 6.0 8.0----29.93- 81.7 84.2----
2024-05-27 08:06 amSSW 5.1 9.9----29.93- 81.7 84.2----
2024-05-27 08:00 am SW 7.0 8.9----29.93+0.06 81.5 84.2----
2024-05-27 07:54 am SW 5.1 8.0----29.93- 81.9 84.2----
2024-05-27 07:48 am SW 6.0 8.0----29.93- 81.7 84.2----
2024-05-27 07:42 am SW 5.1 7.0----29.93- 81.7 84.2----
2024-05-27 07:36 am SW 5.1 8.0----29.93- 81.7 84.2----
2024-05-27 07:30 am SW 7.0 12.0----29.92- 81.5 84.2----
2024-05-27 07:24 amSSW 8.9 12.0----29.91- 81.3 84.2----
2024-05-27 07:18 am SW 5.1 9.9----29.91- 81.5 84.2----
2024-05-27 07:12 am SW 4.1 8.0----29.92- 81.5 84.2----
2024-05-27 07:06 am SW 5.1 8.9----29.92- 81.3 84.2----
2024-05-27 07:00 am SW 5.1 9.9----29.91+0.05 81.3 84.2----
2024-05-27 06:54 amSSW 7.0 9.9----29.91- 81.1 84.2----
2024-05-27 06:48 am SW 7.0 8.0----29.91- 81.1 84.2----
2024-05-27 06:42 am SW 4.1 7.0----29.91- 81.1 84.2----
2024-05-27 06:36 amSSW 6.0 9.9----29.90- 81.0 84.2----
2024-05-27 06:30 amSSW 7.0 11.1----29.89- 81.0 84.2----
2024-05-27 06:24 amSSW 7.0 8.9----29.89- 81.0 84.2----
2024-05-27 06:18 amSSW 6.0 12.0----29.88- 81.0 84.2----
2024-05-27 06:12 amSSW 7.0 9.9----29.88- 81.0 84.2----
2024-05-27 06:06 amSSW 6.0 11.1----29.88- 81.0 84.2----
2024-05-27 06:00 amSSW 7.0 9.9----29.88+0.04 81.0 84.2----
2024-05-27 05:54 amSSW 8.0 12.0----29.88- 81.0 84.2----
2024-05-27 05:48 amSSW 7.0 8.9----29.88- 81.1 84.2----
2024-05-27 05:42 am SW 8.0 9.9----29.88- 81.1 84.2----
2024-05-27 05:36 amSSW 7.0 8.9----29.88- 81.1 84.2----
2024-05-27 05:30 amSSW 8.0 11.1----29.88- 81.1 84.2----
2024-05-27 05:24 am SW 8.0 9.9----29.88- 81.1 84.2----
2024-05-27 05:18 am SW 5.1 8.9----29.88- 81.1 84.2----
2024-05-27 05:12 am SW 6.0 8.0----29.88- 81.1 84.2----
2024-05-27 05:06 am SW 5.1 8.0----29.88- 81.1 84.2----
2024-05-27 05:00 am SW 4.1 8.0----29.87+0.02 81.1 84.2----
2024-05-27 04:54 amSSW 7.0 12.0----29.87- 81.1 84.4----
2024-05-27 04:48 am SW 5.1 9.9----29.86- 81.3 84.2----
2024-05-27 04:42 am SW 8.0 11.1----29.86- 81.3 84.4----
2024-05-27 04:36 am SW 5.1 8.0----29.86- 81.3 84.4----
2024-05-27 04:30 am SW 5.1 7.0----29.86- 81.3 84.4----
2024-05-27 04:24 am SW 5.1 7.0----29.86- 81.5 84.2----
2024-05-27 04:18 am SW 4.1 7.0----29.86- 81.5 84.4----
2024-05-27 04:12 am SW 4.1 8.9----29.86- 81.5 84.4----
2024-05-27 04:06 amSSW 8.0 9.9----29.86- 81.3 84.4----
2024-05-27 04:00 amSSW 7.0 9.9----29.86+0.00 81.3 84.4----
2024-05-27 03:54 amSSW 7.0 12.0----29.86- 81.3 84.4----
2024-05-27 03:48 amSSW 6.0 9.9----29.86- 81.3 84.4----
2024-05-27 03:42 amSSW 7.0 9.9----29.86- 81.5 84.4----
2024-05-27 03:36 amSSW 6.0 8.9----29.86- 81.5 84.4----
2024-05-27 03:30 am SW 6.0 12.0----29.85- 81.7 84.4----
2024-05-27 03:24 amSSW 7.0 11.1----29.85- 81.7 84.4----
2024-05-27 03:18 amSSW 8.0 13.0----29.85- 81.9 84.4----
2024-05-27 03:12 amSSW 9.9 14.0----29.85- 81.9 84.4----
2024-05-27 03:06 amSSW 9.9 13.0----29.84- 81.9 84.4----
2024-05-27 03:00 amSSW 9.9 14.0----29.85-0.03 81.9 84.4----
2024-05-27 02:54 amSSW 8.9 14.0----29.85- 82.0 84.4----
2024-05-27 02:48 am S 8.0 13.0----29.84- 82.0 84.4----
2024-05-27 02:42 amSSW 7.0 14.0----29.84- 82.0 84.6----
2024-05-27 02:36 amSSW 9.9 14.0----29.84- 82.0 84.4----
2024-05-27 02:30 amSSW 9.9 15.0----29.85- 82.0 84.4----
2024-05-27 02:24 amSSW 9.9 12.0----29.85- 82.2 84.6----
2024-05-27 02:18 amSSW 8.0 11.1----29.85- 82.2 84.6----
2024-05-27 02:12 amSSW 5.1 12.0----29.85- 82.2 84.6----
2024-05-27 02:06 amSSW 6.0 11.1----29.85- 82.2 84.6----
2024-05-27 02:00 amSSW 8.9 11.1----29.85-0.02 82.4 84.6----
2024-05-27 01:54 am S 8.0 11.1----29.85- 82.6 84.6----
2024-05-27 01:48 amSSW 5.1 9.9----29.86- 82.6 84.6----
2024-05-27 01:42 amSSW 6.0 8.9----29.86- 82.6 84.6----
2024-05-27 01:36 amSSW 8.0 9.9----29.86- 82.4 84.6----
2024-05-27 01:30 amSSW 7.0 13.0----29.86- 82.6 84.6----
2024-05-27 01:24 amSSW 7.0 11.1----29.87- 82.6 84.6----
2024-05-27 01:18 amSSW 5.1 8.9----29.87- 82.6 84.6----
2024-05-27 01:12 amSSW 7.0 9.9----29.87- 82.6 84.6----
2024-05-27 01:06 amSSW 8.0 12.0----29.87- 82.6 84.6----
2024-05-27 01:00 amSSW 7.0 11.1----29.87+0.00 82.6 84.6----
2024-05-27 12:54 amSSW 8.9 12.0----29.87- 82.6 84.6----
2024-05-27 12:48 am S 7.0 8.9----29.87- 82.6 84.6----
2024-05-27 12:42 amSSW 6.0 9.9----29.87- 82.6 84.6----
2024-05-27 12:36 amSSW 7.0 9.9----29.87- 82.8 84.6----
2024-05-27 12:30 amSSW 7.0 8.9----29.87- 82.6 84.6----
2024-05-27 12:24 amSSW 7.0 11.1----29.87- 82.8 84.6----
2024-05-27 12:18 amSSW 6.0 9.9----29.88- 82.8 84.6----
2024-05-27 12:12 amSSW 6.0 9.9----29.88- 82.8 84.6----
2024-05-27 12:06 amSSW 8.0 14.0----29.87- 82.8 84.4----
2024-05-27 12:00 amSSW 6.0 9.9----29.87+0.02 82.6 84.4----
2024-05-26 11:54 pmSSW 7.0 12.0----29.87- 82.6 84.4----
2024-05-26 11:48 pmSSW 7.0 12.0----29.87- 82.8 84.4----
2024-05-26 11:42 pmSSW 8.0 12.0----29.87- 82.6 84.4----
2024-05-26 11:36 pmSSW 7.0 8.9----29.87- 82.6 84.4----
2024-05-26 11:30 pmSSW 6.0 9.9----29.87- 82.6 84.4----
2024-05-26 11:24 pm S 8.0 9.9----29.87- 82.6 84.4----
2024-05-26 11:18 pm S 6.0 9.9----29.87- 82.4 84.4----
2024-05-26 11:12 pm S 7.0 8.9----29.87- 82.6 84.4----
2024-05-26 11:06 pmSSW 6.0 11.1----29.88- 82.4 84.4----
2024-05-26 11:00 pm S 7.0 9.9----29.88+0.03 82.4 84.4----
2024-05-26 10:54 pmSSW 7.0 11.1----29.88- 82.4 84.4----
2024-05-26 10:48 pm-------29.88-- 84.2----
2024-05-26 10:42 pm-------29.87-- 84.2----
2024-05-26 10:36 pm-------29.87-- 84.2----
2024-05-26 10:30 pm S 7.0 12.0----29.87- 82.2 84.2----
2024-05-26 10:24 pm S 7.0 9.9----29.87- 82.2 84.2----
2024-05-26 10:18 pm S 7.0 13.0----29.86- 82.4 84.4----
2024-05-26 10:12 pmSSW 8.9 13.0----29.86- 82.4 84.4----
2024-05-26 10:06 pm S 7.0 13.0----29.86- 82.4 84.4----
2024-05-26 10:00 pm S 8.0 11.1----29.87+0.04 82.4 84.4----
2024-05-26 09:54 pm S 8.0 11.1----29.86- 82.6 84.6----
2024-05-26 09:48 pm S 7.0 11.1----29.86- 82.6 84.4----
2024-05-26 09:42 pmSSW 8.0 12.0----29.86- 82.6 84.4----
2024-05-26 09:36 pm S 7.0 9.9----29.85- 82.8 84.4----
2024-05-26 09:30 pm---------- 84.4----
2024-05-26 09:24 pm---------- 84.4----
2024-05-26 09:18 pm S 8.0 12.0----29.85-------
2024-05-26 09:12 pmSSW 7.0 11.1----29.85-------
2024-05-26 09:06 pmSSW 6.0 12.0----29.85-------
2024-05-26 09:00 pmSSW 6.0 11.1----29.85+0.02- 84.6----
2024-05-26 08:54 pmSSW 8.9 12.0----29.85-- 84.6----
2024-05-26 08:48 pmSSW 6.0 11.1----29.85- 82.9 84.6----
2024-05-26 08:42 pmSSW 8.9 14.0----29.85- 83.1 84.6----
2024-05-26 08:36 pmSSW 8.0 11.1----29.85- 83.3 84.7----
2024-05-26 08:30 pmSSW 8.0 12.0----29.85- 83.3 84.7----
2024-05-26 08:24 pm S 8.0 12.0----29.85- 83.5 84.7----
2024-05-26 08:18 pm S 8.9 13.0----29.85-- 84.6----
2024-05-26 08:12 pm S 11.1 15.0----29.85-- 84.7----
2024-05-26 08:06 pmSSW 11.1 14.0----29.85-- 84.7----
2024-05-26 08:00 pm S 12.0 14.0----29.85+0.01- 84.7----
2024-05-26 07:54 pm S 12.0 18.1----29.85-- 84.7----
2024-05-26 07:48 pmSSW 12.0 18.1----29.85-- 84.9----
2024-05-26 07:42 pm S 8.9 14.0----29.84-- 84.9----
2024-05-26 07:36 pm S 8.0 15.0----29.84-- 84.9----
2024-05-26 07:30 pm S 9.9 15.0----29.84- 84.4 85.1----
2024-05-26 07:24 pmSSW 8.9 15.9----29.84- 84.4 85.1----
2024-05-26 07:18 pm S 11.1 15.0----29.83-- 85.1----
2024-05-26 07:12 pm S 9.9 15.9----29.83-- 85.3----
2024-05-26 07:06 pmSSW 12.0 19.0----29.83-- 85.3----
2024-05-26 07:00 pm S 11.1 17.1----29.83-0.02- 85.3----
2024-05-26 06:54 pm S 8.0 15.9----29.82-- 85.3----
2024-05-26 06:48 pm-------29.83-- 85.3----
2024-05-26 06:42 pm-------29.83-- 85.3----
2024-05-26 06:36 pm-------29.83-- 85.3----
2024-05-26 06:30 pmSSW 8.9 15.0----29.83-- 85.5----
2024-05-26 06:24 pm S 12.0 15.0----29.83-- 85.5----
2024-05-26 06:18 pmSSW 9.9 15.9----29.83- 85.8 85.5----
2024-05-26 06:12 pm S 9.9 19.0----29.83- 86.2 85.5----
2024-05-26 06:06 pm S 9.9 20.0----29.83- 86.5 85.5----
2024-05-26 06:00 pm S 9.9 15.9----29.83-0.03 86.5 85.5----
2024-05-26 05:54 pm S 9.9 15.0----29.83- 86.5 85.5----